Voltar ao catálogo

STARLINK-4059

AtivoComunicaçõesVLEO
NORAD 53250·PAYLOAD·🇺🇸 United States

Lançado Jul 24, 2022 de Cape Canaveral Space Force Station

Loading…

Próximas Passagens (próximas 24 horas)

TLE

AtualizadoSource: CelesTrak SupGP

Época: Sep 14, 2026, 21:04 UTC

1 53250C 22086J   26257.87826389  .00022198  00000+0  65591-3 0  2573
2 53250  53.1592  51.6552 0001093  78.2638 145.0989 15.34377275    14

Acompanhe STARLINK-4059 em tempo real com AllMySat

Download on the App Store